This is the latest recevied weather packets stored in our database for station/object W4KAB. If no packets are shown the sender has not sent any weather packets the latest 10 day(s).
| Time | Temp. | Humidity | Pressure | Rain* | Wind** | Luminosity | Snow |
|---|---|---|---|---|---|---|---|
| 1777307554 | 17.22° C | 61% | 1025.3 hPa | 0 mm | - | 724 W/m² | - |
| 1777307250 | 17.22° C | 64% | 1025.5 hPa | 0 mm | - | 731 W/m² | - |
| 1777306645 | 16.67° C | 64% | 1025.4 hPa | 0 mm | - | 711 W/m² | - |
| 1777306341 | 16.67° C | 64% | 1025.3 hPa | 0 mm | - | 704 W/m² | - |
| 1777304818 | 15.56° C | 68% | 1025.5 hPa | 0 mm | - | 756 W/m² | - |
| 1777304213 | 15° C | 70% | 1025.5 hPa | 0 mm | - | 228 W/m² | - |
| 1777303909 | 13.89° C | 70% | 1025.4 hPa | 0 mm | - | 766 W/m² | - |
| 1777303607 | 13.89° C | 69% | 1025.5 hPa | 0 mm | - | 163 W/m² | - |
| 1777303304 | 13.89° C | 71% | 1025.4 hPa | 0 mm | - | 859 W/m² | - |
| 1777302698 | 13.89° C | 72% | 1025.6 hPa | 0 mm | - | 206 W/m² | - |
| 1777302397 | 13.89° C | 71% | 1025.3 hPa | 0 mm | - | 173 W/m² | - |
| 1777301186 | 12.78° C | 75% | 1025.7 hPa | 0 mm | - | 148 W/m² | - |
| 1777300581 | 12.22° C | 74% | 1025.8 hPa | 0 mm | - | 154 W/m² | - |
| 1777300278 | 12.78° C | 75% | 1026 hPa | 0 mm | - | 130 W/m² | - |
| 1777299974 | 12.22° C | 76% | 1025.8 hPa | 0 mm | - | 122 W/m² | - |
| 1777299671 | 12.22° C | 77% | 1025.8 hPa | 0 mm | - | 103 W/m² | - |
| 1777299369 | 12.22° C | 76% | 1026.2 hPa | 0 mm | - | 118 W/m² | - |
| 1777299067 | 12.22° C | 76% | 1026.1 hPa | 0 mm | - | 95 W/m² | - |
| 1777298460 | 11.67° C | 76% | 1026 hPa | 0 mm | - | 95 W/m² | - |
| 1777298156 | 11.67° C | 77% | 1026.3 hPa | 0 mm | - | 89 W/m² | - |
| 1777296943 | 11.67° C | 78% | 1025.9 hPa | 0 mm | - | 77 W/m² | - |
| 1777296640 | 11.67° C | 79% | 1026.1 hPa | 0 mm | - | 79 W/m² | - |
| 1777296011 | 11.11° C | 78% | 1026.1 hPa | 0 mm | - | 65 W/m² | - |
| 1777295709 | 11.11° C | 79% | 1026.1 hPa | 0 mm | - | 72 W/m² | - |
| 1777295406 | 11.11° C | 78% | 1025.9 hPa | 0 mm | - | 75 W/m² | - |
* Rain latest hour (hover to see other rain measurements)
** Current wind speed in m/s (hover to see current wind gust speed)